DLH6AP OERK-EDDF

Flight info

Callsign DLH6AP
Flight time N/A
Altitude 38000
Route IVONU Z710 GAS G662 NIMAR L550 NOVPA N697 MENLI L677 CVO L617 NOZ L551 ANTAR DCT RIGRO DCT DISOR DCT LONTA UL608 DOLEV DCT BEDOX DCT SIMBA DCT AKINI T161 DEBHI DEBHI1B
Aircraft A346/H-SDE2E3FGHIJ3J4J5M1P2RWXYZ/LB1D1

Departure

Time 2026-05-06 08:07
Airport King Khalid International Airport (OERK)

Arrival

Time N/A
Airport Frankfurt Main Airport (EDDF)
Time Latitude Longitude Altitude Speed Heading
2026-05-06 07:36 24.96489 46.70063 2043 ft 0 kts 183°
2026-05-06 07:45 24.96485 46.70062 2041 ft 0 kts 183°
2026-05-06 07:47 24.96505 46.70063 2044 ft 4 kts 184°
2026-05-06 07:48 24.96529 46.70067 2044 ft 4 kts 197°
2026-05-06 07:48 24.96546 46.70076 2043 ft 4 kts 228°
2026-05-06 07:48 24.96556 46.70094 2045 ft 4 kts 240°
2026-05-06 07:48 24.96569 46.70118 2045 ft 4 kts 240°
2026-05-06 07:49 24.96581 46.70142 2046 ft 4 kts 240°
2026-05-06 07:49 24.96594 46.70166 2042 ft 4 kts 240°
2026-05-06 07:49 24.96605 46.70188 2045 ft 4 kts 235°
2026-05-06 07:49 24.96618 46.70202 2044 ft 4 kts 203°
2026-05-06 07:50 24.96633 46.70204 2043 ft 4 kts 165°
2026-05-06 07:50 24.96655 46.70194 2045 ft 4 kts 150°
2026-05-06 07:50 24.96676 46.70180 2045 ft 4 kts 150°
2026-05-06 07:50 24.96696 46.70167 2045 ft 1 kts 150°
2026-05-06 07:51 24.96697 46.70167 2045 ft 0 kts 150°
2026-05-06 07:54 24.96687 46.70173 2045 ft 3 kts 150°
2026-05-06 07:54 24.96663 46.70189 2045 ft 5 kts 150°
2026-05-06 07:54 24.96620 46.70216 2046 ft 9 kts 150°
2026-05-06 07:55 24.96558 46.70255 2041 ft 12 kts 150°
2026-05-06 07:55 24.96475 46.70307 2046 ft 14 kts 150°
2026-05-06 07:55 24.96399 46.70356 2041 ft 12 kts 142°
2026-05-06 07:55 24.96382 46.70428 2038 ft 11 kts 69°
2026-05-06 07:56 24.96426 46.70512 2046 ft 13 kts 60°
2026-05-06 07:56 24.96446 46.70551 2043 ft 4 kts 60°
2026-05-06 07:56 24.96460 46.70576 2044 ft 5 kts 60°
2026-05-06 07:56 24.96471 46.70618 2043 ft 6 kts 106°
2026-05-06 07:57 24.96428 46.70655 2039 ft 10 kts 150°
2026-05-06 07:57 24.96347 46.70705 2043 ft 16 kts 150°
2026-05-06 07:57 24.96234 46.70776 2043 ft 21 kts 150°
2026-05-06 07:57 24.96099 46.70862 2045 ft 23 kts 150°
2026-05-06 07:58 24.95960 46.70951 2046 ft 24 kts 150°
2026-05-06 07:58 24.95813 46.71044 2044 ft 25 kts 150°
2026-05-06 07:58 24.95661 46.71139 2043 ft 26 kts 150°
2026-05-06 07:58 24.95504 46.71238 2047 ft 26 kts 150°
2026-05-06 07:59 24.95344 46.71340 2041 ft 27 kts 150°
2026-05-06 07:59 24.95180 46.71444 2044 ft 27 kts 150°
2026-05-06 07:59 24.95022 46.71544 2045 ft 22 kts 150°
2026-05-06 07:59 24.94893 46.71626 2044 ft 19 kts 150°
2026-05-06 08:00 24.94777 46.71699 2045 ft 20 kts 150°
2026-05-06 08:00 24.94652 46.71777 2045 ft 21 kts 150°
2026-05-06 08:00 24.94523 46.71859 2045 ft 16 kts 150°
2026-05-06 08:00 24.94462 46.71898 2045 ft 11 kts 151°
2026-05-06 08:01 24.94387 46.71944 2045 ft 13 kts 150°
2026-05-06 08:01 24.94312 46.71994 2047 ft 11 kts 134°
2026-05-06 08:01 24.94310 46.72072 2045 ft 12 kts 62°
2026-05-06 08:01 24.94318 46.72089 2046 ft 1 kts 61°
2026-05-06 08:02 24.94322 46.72097 2045 ft 0 kts 61°
2026-05-06 08:04 24.94326 46.72105 2046 ft 3 kts 61°
2026-05-06 08:05 24.94342 46.72137 2047 ft 7 kts 60°
2026-05-06 08:05 24.94371 46.72194 2048 ft 10 kts 60°
2026-05-06 08:05 24.94405 46.72254 2048 ft 7 kts 41°
2026-05-06 08:05 24.94445 46.72251 2049 ft 3 kts 329°
2026-05-06 08:06 24.94474 46.72232 2045 ft 9 kts 329°
2026-05-06 08:06 24.94637 46.72128 2048 ft 54 kts 330°
2026-05-06 08:06 24.95137 46.71813 2044 ft 110 kts 330°
2026-05-06 08:06 24.95944 46.71303 2044 ft 156 kts 330°
2026-05-06 08:07 24.96994 46.70624 2104 ft 188 kts 333°
2026-05-06 08:07 24.98127 46.69925 2736 ft 183 kts 335°
2026-05-06 08:07 24.99278 46.69303 3232 ft 184 kts 345°
2026-05-06 08:07 25.00499 46.68830 3761 ft 184 kts 348°
2026-05-06 08:08 25.01763 46.68399 4043 ft 195 kts 346°
2026-05-06 08:08 25.03098 46.67933 4275 ft 208 kts 344°
2026-05-06 08:08 25.04507 46.67405 4516 ft 221 kts 344°
2026-05-06 08:08 25.06008 46.66838 4772 ft 234 kts 343°
2026-05-06 08:09 25.07556 46.66143 4989 ft 249 kts 328°
2026-05-06 08:09 25.08741 46.64706 5182 ft 263 kts 294°
2026-05-06 08:09 25.09107 46.62737 5425 ft 273 kts 262°
2026-05-06 08:09 25.08758 46.60639 5771 ft 281 kts 255°
2026-05-06 08:10 25.08325 46.58520 6358 ft 283 kts 254°
2026-05-06 08:10 25.07929 46.56387 6981 ft 284 kts 258°
2026-05-06 08:10 25.07688 46.54207 7564 ft 287 kts 263°
2026-05-06 08:10 25.07609 46.51992 8207 ft 289 kts 265°
2026-05-06 08:11 25.07564 46.49769 8853 ft 290 kts 266°
2026-05-06 08:11 25.07522 46.47538 9519 ft 291 kts 266°
2026-05-06 08:11 25.07479 46.45300 10132 ft 292 kts 266°
2026-05-06 08:11 25.07431 46.43013 10529 ft 304 kts 266°
2026-05-06 08:12 25.07380 46.40623 10786 ft 319 kts 266°
2026-05-06 08:12 25.07327 46.38118 11042 ft 334 kts 266°
2026-05-06 08:12 25.07271 46.35494 11296 ft 348 kts 266°
2026-05-06 08:12 25.07215 46.32802 11560 ft 363 kts 266°
2026-05-06 08:13 25.07152 46.29951 11842 ft 376 kts 266°
2026-05-06 08:13 25.07088 46.27024 12390 ft 380 kts 266°
2026-05-06 08:13 25.07023 46.24093 13048 ft 383 kts 266°
2026-05-06 08:13 25.06957 46.21140 13701 ft 386 kts 266°
2026-05-06 08:14 25.06891 46.18161 14292 ft 389 kts 266°
2026-05-06 08:14 25.06824 46.15160 14910 ft 391 kts 266°
2026-05-06 08:14 25.06756 46.12152 15564 ft 391 kts 266°
2026-05-06 08:14 25.06684 46.09148 16194 ft 393 kts 266°
2026-05-06 08:15 25.06613 46.06123 16820 ft 394 kts 266°
2026-05-06 08:15 25.06542 46.03088 17465 ft 396 kts 266°
2026-05-06 08:15 25.06470 46.00048 18106 ft 397 kts 266°
2026-05-06 08:15 25.06397 45.97003 18674 ft 398 kts 266°
2026-05-06 08:16 25.06322 45.93935 19192 ft 400 kts 266°
2026-05-06 08:16 25.06246 45.90849 19689 ft 403 kts 266°
2026-05-06 08:16 25.06169 45.87754 20195 ft 405 kts 266°
2026-05-06 08:16 25.06091 45.84631 20671 ft 408 kts 266°
2026-05-06 08:17 25.06011 45.81488 21149 ft 410 kts 266°
2026-05-06 08:17 25.05930 45.78329 21616 ft 413 kts 266°
2026-05-06 08:17 25.05849 45.75151 22098 ft 415 kts 266°
2026-05-06 08:17 25.05778 45.71992 22553 ft 418 kts 268°
2026-05-06 08:18 25.06018 45.68763 23004 ft 425 kts 276°
2026-05-06 08:18 25.06706 45.65568 23461 ft 431 kts 284°
2026-05-06 08:18 25.07828 45.62465 23839 ft 437 kts 290°
2026-05-06 08:18 25.09137 45.59414 24213 ft 440 kts 291°
2026-05-06 08:19 25.10478 45.56359 24598 ft 442 kts 291°
2026-05-06 08:19 25.11823 45.53299 24979 ft 443 kts 291°
2026-05-06 08:19 25.13184 45.50196 25362 ft 445 kts 291°
2026-05-06 08:19 25.14534 45.47111 25744 ft 447 kts 291°
2026-05-06 08:20 25.15888 45.44009 26124 ft 448 kts 291°
2026-05-06 08:20 25.17228 45.40936 26485 ft 450 kts 291°
2026-05-06 08:20 25.18592 45.37805 26876 ft 452 kts 290°
2026-05-06 08:20 25.19955 45.34670 27257 ft 453 kts 290°
2026-05-06 08:21 25.21318 45.31531 27634 ft 454 kts 290°
2026-05-06 08:21 25.22692 45.28363 27971 ft 456 kts 290°
2026-05-06 08:21 25.24066 45.25195 28330 ft 458 kts 290°
2026-05-06 08:21 25.25442 45.22020 28758 ft 457 kts 290°
2026-05-06 08:22 25.26814 45.18855 29305 ft 455 kts 290°
2026-05-06 08:22 25.28178 45.15710 29861 ft 452 kts 290°
2026-05-06 08:22 25.29076 45.13636 30190 ft 450 kts 289°
2026-05-06 08:22 25.30426 45.10516 30614 ft 448 kts 289°
2026-05-06 08:23 25.32222 45.06362 31203 ft 445 kts 289°
2026-05-06 08:23 25.33550 45.03283 31629 ft 442 kts 289°
2026-05-06 08:23 25.34426 45.01250 31927 ft 441 kts 289°
2026-05-06 08:23 25.35744 44.98189 32346 ft 439 kts 288°
2026-05-06 08:24 25.37056 44.95140 32759 ft 437 kts 288°
2026-05-06 08:24 25.38358 44.92112 33178 ft 435 kts 288°
2026-05-06 08:24 25.39656 44.89094 33589 ft 433 kts 288°
2026-05-06 08:24 25.40947 44.86089 33978 ft 431 kts 288°
2026-05-06 08:25 25.42214 44.83136 34321 ft 429 kts 288°
2026-05-06 08:25 25.43495 44.80149 34643 ft 428 kts 288°
2026-05-06 08:25 25.44768 44.77177 34932 ft 427 kts 288°
2026-05-06 08:25 25.46039 44.74207 35241 ft 426 kts 288°
2026-05-06 08:26 25.47307 44.71244 35536 ft 425 kts 288°
2026-05-06 08:26 25.48570 44.68293 35830 ft 424 kts 288°
2026-05-06 08:26 25.49909 44.65362 36095 ft 426 kts 290°
2026-05-06 08:26 25.51390 44.62504 36331 ft 428 kts 293°
2026-05-06 08:27 25.53013 44.59724 36564 ft 432 kts 296°
2026-05-06 08:27 25.54787 44.57016 36781 ft 436 kts 298°
2026-05-06 08:27 25.56714 44.54382 37004 ft 440 kts 301°
2026-05-06 08:27 25.58779 44.51854 37206 ft 445 kts 304°
2026-05-06 08:28 25.60996 44.49422 37382 ft 450 kts 307°
2026-05-06 08:28 25.63280 44.47047 37577 ft 451 kts 307°
2026-05-06 08:28 25.65579 44.44677 37768 ft 451 kts 307°
2026-05-06 08:28 25.67856 44.42332 37955 ft 452 kts 307°
2026-05-06 08:29 25.72478 44.37575 38024 ft 453 kts 307°
2026-05-06 08:29 25.77088 44.32811 38020 ft 453 kts 307°
2026-05-06 08:30 25.81699 44.28041 38004 ft 452 kts 307°
2026-05-06 08:30 25.86305 44.23271 38024 ft 452 kts 307°
2026-05-06 08:31 25.90908 44.18501 38017 ft 451 kts 307°
2026-05-06 08:31 25.95477 44.13758 38017 ft 451 kts 307°
2026-05-06 08:32 26.00069 44.08985 38015 ft 451 kts 307°
2026-05-06 08:32 26.04649 44.04220 38019 ft 451 kts 307°
2026-05-06 08:33 26.09229 43.99456 38032 ft 450 kts 306°
2026-05-06 08:33 26.13797 43.94692 38033 ft 449 kts 306°
2026-05-06 08:34 26.20611 43.87573 38040 ft 449 kts 306°
2026-05-06 08:35 26.25148 43.82783 38067 ft 446 kts 304°
2026-05-06 08:35 26.29283 43.77695 38047 ft 439 kts 299°
2026-05-06 08:36 26.32877 43.72259 38041 ft 431 kts 294°
2026-05-06 08:36 26.36039 43.66606 38042 ft 429 kts 292°
2026-05-06 08:37 26.39156 43.60925 38052 ft 429 kts 292°
2026-05-06 08:37 26.42273 43.55235 38040 ft 428 kts 292°
2026-05-06 08:38 26.45361 43.49589 38038 ft 428 kts 292°
2026-05-06 08:38 26.48467 43.43905 38035 ft 428 kts 292°
2026-05-06 08:39 26.51573 43.38212 38046 ft 428 kts 292°
2026-05-06 08:39 26.54675 43.32521 38057 ft 428 kts 291°
2026-05-06 08:40 26.57777 43.26821 38046 ft 428 kts 291°
2026-05-06 08:40 26.60850 43.21166 38059 ft 428 kts 291°
2026-05-06 08:41 26.63941 43.15472 38034 ft 427 kts 291°
2026-05-06 08:41 26.67028 43.09784 38039 ft 427 kts 291°
2026-05-06 08:42 26.70118 43.04083 38041 ft 427 kts 291°
2026-05-06 08:42 26.73202 42.98387 38054 ft 426 kts 291°
2026-05-06 08:43 26.76277 42.92697 38055 ft 426 kts 291°
2026-05-06 08:43 26.79326 42.87047 38051 ft 426 kts 291°
2026-05-06 08:44 26.82391 42.81360 38056 ft 426 kts 291°
2026-05-06 08:44 26.85454 42.75669 38056 ft 426 kts 291°
2026-05-06 08:45 26.88516 42.69973 38052 ft 426 kts 291°
2026-05-06 08:45 26.91575 42.64276 38051 ft 426 kts 291°
2026-05-06 08:46 26.94629 42.58583 38082 ft 425 kts 291°
2026-05-06 08:46 26.97676 42.52893 38063 ft 425 kts 291°
2026-05-06 08:47 27.00705 42.47226 38059 ft 425 kts 291°
2026-05-06 08:47 27.03747 42.41529 38062 ft 425 kts 291°
2026-05-06 08:48 27.06791 42.35825 38068 ft 425 kts 291°
2026-05-06 08:48 27.09826 42.30127 38061 ft 425 kts 291°
2026-05-06 08:49 27.12860 42.24426 38066 ft 425 kts 291°
2026-05-06 08:49 27.15899 42.18706 38083 ft 425 kts 291°
2026-05-06 08:50 27.18928 42.13002 38056 ft 425 kts 290°
2026-05-06 08:50 27.21934 42.07325 38067 ft 425 kts 290°
2026-05-06 08:51 27.24961 42.01604 38066 ft 425 kts 290°
2026-05-06 08:51 27.27983 41.95890 38092 ft 425 kts 290°
2026-05-06 08:52 27.31002 41.90167 38072 ft 424 kts 290°
2026-05-06 08:52 27.33998 41.84476 38070 ft 424 kts 290°
2026-05-06 08:53 27.37010 41.78751 38064 ft 424 kts 290°
2026-05-06 08:53 27.40167 41.73091 38073 ft 430 kts 294°
2026-05-06 08:54 27.43843 41.67679 38098 ft 438 kts 299°
2026-05-06 08:54 27.48048 41.62604 38098 ft 448 kts 304°
2026-05-06 08:55 27.52637 41.57803 38093 ft 450 kts 306°
2026-05-06 08:55 27.57255 41.53034 38095 ft 450 kts 306°
2026-05-06 08:56 27.61842 41.48287 38086 ft 450 kts 306°
2026-05-06 08:56 27.66488 41.43473 38075 ft 450 kts 306°
2026-05-06 08:57 27.71076 41.38712 38109 ft 450 kts 306°
2026-05-06 08:57 27.75691 41.33916 38095 ft 450 kts 306°
2026-05-06 08:58 27.80307 41.29112 38081 ft 451 kts 306°
2026-05-06 08:58 27.84931 41.24296 38074 ft 451 kts 306°
2026-05-06 08:59 27.89522 41.19508 38076 ft 451 kts 306°
2026-05-06 08:59 27.94146 41.14682 38093 ft 452 kts 306°
2026-05-06 09:00 27.98767 41.09854 38089 ft 452 kts 306°
2026-05-06 09:00 28.03384 41.05025 38092 ft 452 kts 306°
2026-05-06 09:01 28.08000 41.00190 38123 ft 452 kts 306°
2026-05-06 09:01 28.12607 40.95356 38103 ft 451 kts 306°
2026-05-06 09:02 28.17223 40.90507 38131 ft 451 kts 306°
2026-05-06 09:02 28.21822 40.85669 38108 ft 451 kts 306°
2026-05-06 09:03 28.26427 40.80821 38106 ft 450 kts 306°
2026-05-06 09:03 28.31005 40.75994 38103 ft 450 kts 306°
2026-05-06 09:04 28.35594 40.71149 38109 ft 450 kts 306°
2026-05-06 09:04 28.40192 40.66289 38111 ft 450 kts 306°
2026-05-06 09:05 28.44753 40.61463 38126 ft 450 kts 306°
2026-05-06 09:05 28.49331 40.56613 38113 ft 450 kts 306°
2026-05-06 09:06 28.53904 40.51760 38117 ft 450 kts 306°
2026-05-06 09:06 28.58481 40.46898 38147 ft 449 kts 306°
2026-05-06 09:07 28.63061 40.42025 38123 ft 450 kts 306°
2026-05-06 09:07 28.67639 40.37151 38123 ft 450 kts 306°
2026-05-06 09:08 28.72208 40.32279 38124 ft 450 kts 306°
2026-05-06 09:08 28.76781 40.27397 38129 ft 449 kts 306°
2026-05-06 09:09 28.81340 40.22518 38160 ft 450 kts 306°
2026-05-06 09:09 28.85914 40.17621 38140 ft 451 kts 306°
2026-05-06 09:10 28.89722 40.13543 38134 ft 451 kts 306°
2026-05-06 09:10 28.95041 40.07837 38138 ft 451 kts 306°
2026-05-06 09:11 28.99612 40.02924 38163 ft 451 kts 306°
2026-05-06 09:11 29.04136 39.97971 38132 ft 446 kts 302°
2026-05-06 09:12 29.07221 39.93318 38142 ft 431 kts 291°
2026-05-06 09:12 29.09671 39.87246 38139 ft 416 kts 279°
2026-05-06 09:13 29.10846 39.80872 38145 ft 404 kts 269°
2026-05-06 09:13 29.11012 39.74476 38149 ft 402 kts 265°
2026-05-06 09:14 29.11051 39.68060 38144 ft 402 kts 264°
2026-05-06 09:14 29.11077 39.61691 38140 ft 402 kts 264°
2026-05-06 09:15 29.11096 39.55279 38149 ft 403 kts 264°
2026-05-06 09:15 29.11110 39.48850 38142 ft 404 kts 264°
2026-05-06 09:16 29.11121 39.42417 38145 ft 404 kts 264°
2026-05-06 09:16 29.11128 39.35986 38135 ft 404 kts 264°
2026-05-06 09:17 29.11132 39.29540 38129 ft 405 kts 264°
2026-05-06 09:17 29.11133 39.23124 38132 ft 405 kts 264°
2026-05-06 09:18 29.11131 39.16664 38132 ft 405 kts 264°
2026-05-06 09:18 29.11124 39.10208 38142 ft 405 kts 264°
2026-05-06 09:19 29.11114 39.03744 38128 ft 406 kts 264°
2026-05-06 09:19 29.11102 38.97317 38127 ft 406 kts 264°
2026-05-06 09:20 29.11087 38.90846 38124 ft 406 kts 264°
2026-05-06 09:20 29.11062 38.84361 38132 ft 407 kts 264°
2026-05-06 09:21 29.11035 38.77863 38119 ft 408 kts 264°
2026-05-06 09:21 29.11004 38.71363 38119 ft 408 kts 264°
2026-05-06 09:22 29.10971 38.64868 38123 ft 407 kts 264°
2026-05-06 09:22 29.10931 38.58368 38123 ft 409 kts 264°
2026-05-06 09:23 29.10890 38.51851 38118 ft 409 kts 264°
2026-05-06 09:23 29.10845 38.45378 38119 ft 409 kts 264°
2026-05-06 09:24 29.10796 38.38863 38122 ft 409 kts 264°
2026-05-06 09:24 29.10747 38.32349 38116 ft 409 kts 264°
2026-05-06 09:25 29.10696 38.25833 38109 ft 409 kts 264°
2026-05-06 09:25 29.10640 38.19323 38112 ft 409 kts 264°
2026-05-06 09:26 29.10578 38.12799 38112 ft 410 kts 264°
2026-05-06 09:26 29.10515 38.06260 38106 ft 410 kts 264°
2026-05-06 09:27 29.10449 37.99772 38086 ft 410 kts 264°
2026-05-06 09:27 29.10379 37.93242 38107 ft 410 kts 264°
2026-05-06 09:28 29.10304 37.86697 38109 ft 411 kts 264°
2026-05-06 09:28 29.10228 37.80152 38098 ft 411 kts 264°
2026-05-06 09:29 29.10148 37.73608 38097 ft 411 kts 264°
2026-05-06 09:29 29.10063 37.67050 38102 ft 412 kts 264°
2026-05-06 09:30 29.09976 37.60512 38097 ft 412 kts 264°
2026-05-06 09:30 29.09886 37.53941 38097 ft 412 kts 264°
2026-05-06 09:31 29.09811 37.47368 38109 ft 413 kts 265°
2026-05-06 09:31 29.09768 37.40789 38089 ft 414 kts 265°
2026-05-06 09:32 29.09722 37.34169 38089 ft 414 kts 265°
2026-05-06 09:32 29.09672 37.27567 38079 ft 414 kts 265°
2026-05-06 09:33 29.09614 37.20983 38087 ft 414 kts 265°
2026-05-06 09:33 29.09552 37.14383 38084 ft 415 kts 265°
2026-05-06 09:34 29.09490 37.07816 38080 ft 415 kts 265°
2026-05-06 09:34 29.09423 37.01211 38072 ft 415 kts 265°
2026-05-06 09:35 29.09351 36.94613 38074 ft 415 kts 265°
2026-05-06 09:35 29.09278 36.88001 38061 ft 415 kts 265°
2026-05-06 09:36 29.09201 36.81386 38061 ft 415 kts 265°
2026-05-06 09:36 29.09121 36.74775 38060 ft 415 kts 265°
2026-05-06 09:37 29.09035 36.68156 38067 ft 416 kts 265°
2026-05-06 09:37 29.08950 36.61584 38038 ft 416 kts 265°
2026-05-06 09:38 29.08858 36.54958 38049 ft 416 kts 265°
2026-05-06 09:38 29.08763 36.48339 38069 ft 416 kts 265°
2026-05-06 09:39 29.08606 36.41716 38059 ft 416 kts 265°
2026-05-06 09:39 29.08424 36.35081 38055 ft 416 kts 265°
2026-05-06 09:40 29.08241 36.28502 38062 ft 416 kts 265°
2026-05-06 09:40 29.07960 36.18569 38057 ft 417 kts 265°
2026-05-06 09:41 29.07769 36.11908 38053 ft 417 kts 265°
2026-05-06 09:41 29.07576 36.05263 38062 ft 417 kts 265°
2026-05-06 09:42 29.07378 35.98587 38067 ft 417 kts 265°
2026-05-06 09:42 29.07178 35.91960 38036 ft 417 kts 265°
2026-05-06 09:43 29.06975 35.85304 38065 ft 417 kts 265°
2026-05-06 09:43 29.06767 35.78671 38066 ft 417 kts 264°
2026-05-06 09:44 29.06558 35.72081 38084 ft 417 kts 265°
2026-05-06 09:44 29.06344 35.65433 38068 ft 417 kts 265°
2026-05-06 09:45 29.06127 35.58787 38062 ft 417 kts 265°
2026-05-06 09:45 29.05907 35.52150 38066 ft 417 kts 265°
2026-05-06 09:46 29.05683 35.45511 38067 ft 418 kts 265°
2026-05-06 09:46 29.05457 35.38862 38058 ft 418 kts 265°
2026-05-06 09:47 29.05226 35.32201 38051 ft 418 kts 265°
2026-05-06 09:47 29.04995 35.25597 38050 ft 418 kts 265°
2026-05-06 09:48 29.04756 35.18941 38034 ft 419 kts 265°
2026-05-06 09:48 29.04515 35.12263 38037 ft 419 kts 265°
2026-05-06 09:49 29.04270 35.05576 38045 ft 419 kts 265°
2026-05-06 09:49 29.04022 34.98899 38064 ft 419 kts 265°
2026-05-06 09:50 29.03769 34.92265 38043 ft 419 kts 265°
2026-05-06 09:50 29.03514 34.85591 38046 ft 421 kts 265°
2026-05-06 09:51 29.03369 34.78902 38040 ft 420 kts 266°
2026-05-06 09:51 29.03516 34.72214 38069 ft 422 kts 272°
2026-05-06 09:52 29.04334 34.65556 38047 ft 424 kts 277°
2026-05-06 09:52 29.05695 34.58967 38050 ft 426 kts 282°
2026-05-06 09:53 29.07518 34.52492 38066 ft 427 kts 284°
2026-05-06 09:53 29.09409 34.46034 38082 ft 428 kts 284°
2026-05-06 09:54 29.11297 34.39583 38067 ft 426 kts 284°
2026-05-06 09:54 29.13176 34.33155 38064 ft 426 kts 284°
2026-05-06 09:55 29.15043 34.26760 38071 ft 426 kts 284°
2026-05-06 09:55 29.16921 34.20304 38080 ft 427 kts 284°
2026-05-06 09:56 29.18796 34.13847 38073 ft 426 kts 284°
2026-05-06 09:56 29.20665 34.07397 38073 ft 426 kts 284°
2026-05-06 09:57 29.22216 34.02032 38073 ft 426 kts 284°
2026-05-06 09:57 29.24082 33.95568 38076 ft 426 kts 284°
2026-05-06 09:58 29.25943 33.89114 38078 ft 426 kts 284°
2026-05-06 09:58 29.28105 33.81613 38075 ft 426 kts 284°
2026-05-06 09:59 29.29660 33.76196 38073 ft 426 kts 284°
2026-05-06 09:59 29.31511 33.69736 38069 ft 426 kts 284°
2026-05-06 10:00 29.33345 33.63312 38079 ft 426 kts 284°
2026-05-06 10:00 29.35189 33.56853 38076 ft 426 kts 284°
2026-05-06 10:01 29.37031 33.50383 38072 ft 426 kts 284°
2026-05-06 10:01 29.38871 33.43910 38072 ft 426 kts 284°
2026-05-06 10:02 29.40710 33.37422 38070 ft 426 kts 284°
2026-05-06 10:02 29.42529 33.30991 38071 ft 426 kts 284°
2026-05-06 10:03 29.44360 33.24502 38073 ft 426 kts 284°
2026-05-06 10:03 29.46187 33.18022 38070 ft 427 kts 284°
2026-05-06 10:04 29.48010 33.11528 38078 ft 426 kts 284°
2026-05-06 10:04 29.49830 33.05041 38080 ft 426 kts 284°
2026-05-06 10:05 29.51651 32.98540 38078 ft 426 kts 284°
2026-05-06 10:05 29.53465 32.92045 38077 ft 426 kts 284°
2026-05-06 10:06 29.55274 32.85545 38085 ft 426 kts 284°
2026-05-06 10:06 29.57080 32.79048 38085 ft 426 kts 284°
2026-05-06 10:07 29.58884 32.72549 38087 ft 426 kts 284°
2026-05-06 10:07 29.60563 32.66052 38086 ft 425 kts 282°
2026-05-06 10:08 29.62067 32.59466 38101 ft 425 kts 282°
2026-05-06 10:08 29.63559 32.52892 38094 ft 424 kts 282°
2026-05-06 10:09 29.65047 32.46324 38098 ft 424 kts 282°
2026-05-06 10:09 29.66533 32.39745 38100 ft 424 kts 282°
2026-05-06 10:10 29.68013 32.33167 38109 ft 424 kts 282°
2026-05-06 10:10 29.69487 32.26600 38102 ft 423 kts 282°
2026-05-06 10:11 29.70949 32.20079 38101 ft 423 kts 282°
2026-05-06 10:11 29.72417 32.13508 38100 ft 423 kts 282°
2026-05-06 10:12 29.73880 32.06941 38117 ft 423 kts 282°
2026-05-06 10:12 29.75336 32.00382 38100 ft 422 kts 282°
2026-05-06 10:13 29.76982 31.93875 38103 ft 423 kts 287°
2026-05-06 10:13 29.79193 31.87619 38108 ft 425 kts 292°
2026-05-06 10:14 29.81998 31.81599 38120 ft 427 kts 298°
2026-05-06 10:14 29.85349 31.75917 38119 ft 428 kts 302°
2026-05-06 10:15 29.88892 31.70372 38116 ft 428 kts 302°
2026-05-06 10:15 29.92444 31.64850 38115 ft 429 kts 303°
2026-05-06 10:16 29.96019 31.59331 38096 ft 429 kts 303°
2026-05-06 10:16 29.99566 31.53846 38103 ft 429 kts 303°
2026-05-06 10:17 30.03146 31.48295 38099 ft 428 kts 303°
2026-05-06 10:17 30.06699 31.42815 38101 ft 428 kts 304°
2026-05-06 10:18 30.10609 31.37584 38097 ft 431 kts 309°
2026-05-06 10:18 30.14929 31.32745 38097 ft 433 kts 312°
2026-05-06 10:19 30.19356 31.27987 38104 ft 432 kts 312°
2026-05-06 10:19 30.23765 31.23249 38092 ft 432 kts 312°
2026-05-06 10:20 30.28140 31.18541 38093 ft 431 kts 312°
2026-05-06 10:20 30.32537 31.13802 38092 ft 431 kts 312°
2026-05-06 10:21 30.36938 31.09053 38088 ft 431 kts 312°
2026-05-06 10:21 30.41331 31.04307 38098 ft 431 kts 312°
2026-05-06 10:22 30.45719 30.99560 38094 ft 431 kts 312°
2026-05-06 10:22 30.50115 30.94796 38118 ft 431 kts 312°
2026-05-06 10:23 30.54509 30.90028 38098 ft 432 kts 313°
2026-05-06 10:23 30.58881 30.85280 38099 ft 432 kts 313°
2026-05-06 10:24 30.63271 30.80506 38100 ft 432 kts 312°
2026-05-06 10:24 30.67657 30.75730 38098 ft 432 kts 312°
2026-05-06 10:25 30.72044 30.70947 38094 ft 432 kts 312°
2026-05-06 10:25 30.76428 30.66159 38095 ft 432 kts 312°
2026-05-06 10:26 30.80806 30.61373 38104 ft 432 kts 312°
2026-05-06 10:26 30.85184 30.56578 38110 ft 432 kts 312°
2026-05-06 10:27 30.89533 30.51809 38100 ft 432 kts 312°
2026-05-06 10:27 30.93911 30.47003 38098 ft 432 kts 312°
2026-05-06 10:28 30.98289 30.42187 38098 ft 432 kts 312°
2026-05-06 10:28 31.02627 30.37345 38102 ft 430 kts 310°
2026-05-06 10:29 31.06447 30.32031 38103 ft 426 kts 302°
2026-05-06 10:29 31.09568 30.26175 38103 ft 423 kts 295°
2026-05-06 10:30 31.11941 30.19897 38105 ft 421 kts 288°
2026-05-06 10:30 31.13762 30.13432 38108 ft 421 kts 287°
2026-05-06 10:31 31.15546 30.06916 38113 ft 421 kts 288°
2026-05-06 10:31 31.18023 30.00691 38111 ft 424 kts 299°
2026-05-06 10:32 31.21610 29.95191 38124 ft 428 kts 310°
2026-05-06 10:32 31.26196 29.90656 38138 ft 435 kts 322°
2026-05-06 10:33 31.31483 29.87116 38126 ft 438 kts 327°
2026-05-06 10:33 31.36863 29.83750 38125 ft 438 kts 327°
2026-05-06 10:34 31.42234 29.80391 38131 ft 437 kts 327°
2026-05-06 10:34 31.47592 29.77034 38128 ft 436 kts 327°
2026-05-06 10:35 31.52948 29.73673 38120 ft 436 kts 327°
2026-05-06 10:35 31.58303 29.70306 38135 ft 436 kts 327°
2026-05-06 10:36 31.63617 29.66961 38117 ft 436 kts 327°
2026-05-06 10:36 31.68966 29.63590 38110 ft 436 kts 327°
2026-05-06 10:37 31.74309 29.60217 38111 ft 436 kts 327°
2026-05-06 10:37 31.79661 29.56834 38131 ft 436 kts 327°
2026-05-06 10:38 31.85006 29.53449 38133 ft 436 kts 327°
2026-05-06 10:38 31.90316 29.50083 38125 ft 435 kts 327°
2026-05-06 10:39 31.95639 29.46704 38123 ft 434 kts 327°
2026-05-06 10:39 32.00961 29.43322 38122 ft 434 kts 327°
2026-05-06 10:40 32.06286 29.39936 38119 ft 434 kts 327°
2026-05-06 10:40 32.11608 29.36544 38144 ft 434 kts 327°
2026-05-06 10:41 32.16890 29.33169 38124 ft 434 kts 327°
2026-05-06 10:41 32.22199 29.29777 38118 ft 433 kts 327°
2026-05-06 10:42 32.27509 29.26382 38118 ft 433 kts 327°
2026-05-06 10:42 32.32802 29.22989 38121 ft 433 kts 327°
2026-05-06 10:43 32.37209 29.20160 38122 ft 432 kts 327°
2026-05-06 10:44 32.45999 29.14507 38120 ft 432 kts 327°
2026-05-06 10:44 32.50435 29.11649 38115 ft 432 kts 327°
2026-05-06 10:45 32.55691 29.08258 38121 ft 432 kts 327°
2026-05-06 10:45 32.60978 29.04842 38113 ft 432 kts 327°
2026-05-06 10:46 32.66266 29.01421 38112 ft 432 kts 327°
2026-05-06 10:46 32.71550 28.98000 38121 ft 431 kts 327°
2026-05-06 10:47 32.76815 28.94583 38116 ft 431 kts 327°
2026-05-06 10:47 32.82047 28.91183 38116 ft 430 kts 327°
2026-05-06 10:48 32.87303 28.87764 38116 ft 430 kts 327°
2026-05-06 10:48 32.92567 28.84336 38112 ft 430 kts 327°
2026-05-06 10:49 32.97814 28.80913 38125 ft 430 kts 327°
2026-05-06 10:49 33.03057 28.77488 38116 ft 430 kts 327°
2026-05-06 10:50 33.08305 28.74057 38114 ft 430 kts 327°
2026-05-06 10:50 33.13559 28.70615 38114 ft 430 kts 327°
2026-05-06 10:51 33.18807 28.67174 38111 ft 430 kts 327°
2026-05-06 10:51 33.24018 28.63749 38130 ft 430 kts 327°
2026-05-06 10:52 33.29256 28.60304 38117 ft 429 kts 327°
2026-05-06 10:52 33.34486 28.56861 38114 ft 429 kts 327°
2026-05-06 10:53 33.39718 28.53411 38111 ft 429 kts 327°
2026-05-06 10:53 33.44948 28.49957 38111 ft 429 kts 327°
2026-05-06 10:54 33.50178 28.46498 38108 ft 429 kts 327°
2026-05-06 10:54 33.55379 28.43052 38115 ft 429 kts 327°
2026-05-06 10:55 33.60600 28.39589 38112 ft 429 kts 327°
2026-05-06 10:55 33.65828 28.36116 38111 ft 429 kts 327°
2026-05-06 10:56 33.71015 28.32663 38108 ft 429 kts 327°
2026-05-06 10:56 33.76243 28.29179 38108 ft 429 kts 327°
2026-05-06 10:57 33.81502 28.25776 38119 ft 430 kts 329°
2026-05-06 10:57 33.86857 28.22564 38109 ft 430 kts 329°
2026-05-06 10:58 33.92214 28.19357 38103 ft 430 kts 329°
2026-05-06 10:58 33.97570 28.16142 38103 ft 430 kts 329°
2026-05-06 10:59 34.02921 28.12923 38103 ft 430 kts 329°
2026-05-06 10:59 34.08273 28.09697 38124 ft 430 kts 329°
2026-05-06 11:00 34.13591 28.06486 38107 ft 429 kts 329°
2026-05-06 11:00 34.18929 28.03260 38105 ft 429 kts 329°
2026-05-06 11:01 34.24267 28.00029 38103 ft 429 kts 329°
2026-05-06 11:01 34.29599 27.96797 38103 ft 429 kts 329°
2026-05-06 11:02 34.34929 27.93561 38115 ft 429 kts 330°
2026-05-06 11:02 34.40263 27.90315 38093 ft 428 kts 330°
2026-05-06 11:03 34.45558 27.87093 38095 ft 428 kts 330°
2026-05-06 11:03 34.50880 27.83849 38095 ft 428 kts 330°
2026-05-06 11:04 34.56208 27.80596 38096 ft 428 kts 330°
2026-05-06 11:04 34.61527 27.77344 38119 ft 428 kts 330°
2026-05-06 11:05 34.66836 27.74090 38109 ft 427 kts 330°
2026-05-06 11:05 34.72106 27.70860 38096 ft 426 kts 330°
2026-05-06 11:06 34.77409 27.67605 38099 ft 426 kts 330°
2026-05-06 11:06 34.82710 27.64345 38093 ft 426 kts 330°
2026-05-06 11:07 34.88004 27.61084 38105 ft 426 kts 330°
2026-05-06 11:07 34.93292 27.57819 38098 ft 425 kts 330°
2026-05-06 11:08 34.98581 27.54554 38097 ft 425 kts 330°
2026-05-06 11:08 35.03829 27.51309 38092 ft 425 kts 330°
2026-05-06 11:09 35.09102 27.48043 38086 ft 425 kts 330°
2026-05-06 11:09 35.14380 27.44770 38087 ft 425 kts 330°
2026-05-06 11:10 35.19651 27.41495 38092 ft 425 kts 330°
2026-05-06 11:10 35.24923 27.38214 38094 ft 425 kts 330°
2026-05-06 11:11 35.30188 27.34933 38085 ft 425 kts 330°
2026-05-06 11:11 35.35461 27.31642 38093 ft 425 kts 330°
2026-05-06 11:12 35.40693 27.28372 38105 ft 425 kts 330°
2026-05-06 11:12 35.45946 27.25081 38096 ft 423 kts 330°
2026-05-06 11:13 35.51189 27.21797 38091 ft 423 kts 330°
2026-05-06 11:13 35.56432 27.18507 38096 ft 422 kts 330°
2026-05-06 11:14 35.61662 27.15220 38090 ft 422 kts 330°
2026-05-06 11:14 35.66900 27.11922 38091 ft 422 kts 330°
2026-05-06 11:15 35.72093 27.08647 38102 ft 420 kts 330°
2026-05-06 11:15 35.77292 27.05365 38098 ft 419 kts 330°
2026-05-06 11:16 35.82490 27.02077 38097 ft 419 kts 330°
2026-05-06 11:16 35.87682 26.98789 38095 ft 419 kts 330°
2026-05-06 11:17 35.92879 26.95492 38092 ft 419 kts 330°
2026-05-06 11:17 35.98061 26.92200 38104 ft 418 kts 330°
2026-05-06 11:18 36.03235 26.88909 38093 ft 418 kts 330°
2026-05-06 11:18 36.08408 26.85614 38098 ft 418 kts 330°
2026-05-06 11:19 36.13590 26.82308 38095 ft 418 kts 330°
2026-05-06 11:19 36.18726 26.79025 38094 ft 418 kts 330°
2026-05-06 11:20 36.23902 26.75713 38106 ft 417 kts 330°
2026-05-06 11:20 36.29054 26.72411 38090 ft 417 kts 330°
2026-05-06 11:21 36.34203 26.69106 38106 ft 417 kts 330°